770  
ASUS41 KRLX 292010  
RWRRLX  
WEST VIRGINIA REGIONAL WEATHER ROUNDUP  
NATIONAL WEATHER SERVICE CHARLESTON WV  
400 PM EDT MON MAY 29 2017  
 
NOTE: "FAIR" INDICATES FEW OR NO CLOUDS BELOW 12,000 FEET WITH NO  
SIGNIFICANT WEATHER AND/OR S TO VISIBILITY
.  
 
WVZ003-292100-  
NORTHERN PANHANDLE OF WEST VIRGINIA  
 
CITY SKY/WX TMP DP RH WIND PRES REMARKS
 
WHEELING PTSUNNY 76 51 41 W8 29.95S  

 
 
WVZ009-292100-  
NORTHWEST WEST VIRGINIA  
 
CITY SKY/WX TMP DP RH WIND PRES REMARKS
 
PARKERSBURG MOSUNNY 79 56 45 SW8 29.98S  

 
 
WVZ006-292100-  
WESTERN WEST VIRGINIA  
 
CITY SKY/WX TMP DP RH WIND PRES REMARKS
 
HUNTINGTON MOSUNNY 81 57 43 SW8G17 29.98S  

 
 
WVZ015-292100-  
WEST CENTRAL WEST VIRGINIA  
 
CITY SKY/WX TMP DP RH WIND PRES REMARKS
 
CHARLESTON PTSUNNY 77 56 48 SW8 30.00R  

 
 
WVZ022-031-292100-  
NORTH CENTRAL WEST VIRGINIA  
 
CITY SKY/WX TMP DP RH WIND PRES REMARKS
 
CLARKSBURG MOSUNNY 76 55 48 SW13 29.99R  
MORGANTOWN CLOUDY 76 54 46 W7 29.99R  

 
 
WVZ025-035-042-045-292100-  
SOUTHERN WEST VIRGINIA  
 
CITY SKY/WX TMP DP RH WIND PRES REMARKS
 
BECKLEY CLOUDY 70 52 52 W7 30.07S  
LOGAN N/A 73 57 56 CALM 30.04S  
BLUEFIELD CLOUDY 67 55 65 NW6 30.09S  
LEWISBURG MOSUNNY 71 48 44 W5 30.06F  

 
 
WVZ047-292100-  
NORTHERN MOUNTAINS OF WEST VIRGINIA  
 
CITY SKY/WX TMP DP RH WIND PRES REMARKS
 
ELKINS CLOUDY 73 51 46 VRB6 30.03R  

 
 
WVZ052-292100-  
EASTERN PANHANDLE OF WEST VIRGINIA  
 
CITY SKY/WX TMP DP RH WIND PRES REMARKS
 
MARTINSBURG MOSUNNY 79 56 45 SW8 29.92F  
PETERSBURG CLOUDY 78 56 46 SW5 29.98R  

 
 
 
CLICK HERE TO GO TO PREVIOUS BULLETINS.

The Nexlab WV Page
The Nexlab OH Page
The Nexlab KY Page
The Nexlab VA Page Main Text Page